Time,TemperatureF,DewpointF,PressureIn,WindDirection,WindDirectionDegrees,WindSpeedMPH,WindSpeedGustMPH,Humidity,HourlyPrecipIn,Conditions,Clouds,dailyrainin,SoftwareType,DateUTC
2013-12-12 00:01:00,56.8,33.4,29.83,SSW,192,4.0,6.0,41,0.00,,,0.00,WeatherCatV1.15B25,2013-12-12 07:01:00,
2013-12-12 00:06:00,56.7,33.3,29.83,SSW,192,3.0,4.0,41,0.00,,,0.00,WeatherCatV1.15B25,2013-12-12 07:06:00,
2013-12-12 00:11:00,56.4,33.0,29.83,SSW,192,2.0,3.0,41,0.00,,,0.00,WeatherCatV1.15B25,2013-12-12 07:11:00,
2013-12-12 00:16:00,56.4,33.0,29.83,SSW,192,2.0,2.0,41,0.00,,,0.00,WeatherCatV1.15B25,2013-12-12 07:16:00,
2013-12-12 00:21:00,56.2,32.8,29.83,SSW,192,1.0,3.0,41,0.00,,,0.00,WeatherCatV1.15B25,2013-12-12 07:21:00,
2013-12-12 00:26:00,56.2,32.8,29.83,SSW,192,1.0,3.0,41,0.00,,,0.00,WeatherCatV1.15B25,2013-12-12 07:26:00,
2013-12-12 00:31:00,56.2,32.8,29.83,SSW,192,1.0,2.0,41,0.00,,,0.00,WeatherCatV1.15B25,2013-12-12 07:31:00,
2013-12-12 00:36:00,56.1,32.7,29.83,South,190,4.0,5.0,41,0.00,,,0.00,WeatherCatV1.15B25,2013-12-12 07:36:00,
2013-12-12 00:41:00,56.1,32.7,29.83,South,190,2.0,4.0,41,0.00,,,0.00,WeatherCatV1.15B25,2013-12-12 07:41:00,
2013-12-12 00:46:00,56.5,32.5,29.83,SSW,209,1.0,5.0,40,0.00,,,0.00,WeatherCatV1.15B25,2013-12-12 07:46:00,
2013-12-12 00:51:00,56.6,32.6,29.82,SSW,209,2.0,5.0,40,0.00,,,0.00,WeatherCatV1.15B25,2013-12-12 07:51:00,
2013-12-12 00:56:00,56.8,32.7,29.83,SSW,208,2.0,5.0,40,0.00,,,0.00,WeatherCatV1.15B25,2013-12-12 07:56:00,
2013-12-12 01:01:00,56.9,32.2,29.83,SSW,207,2.0,6.0,39,0.00,,,0.00,WeatherCatV1.15B25,2013-12-12 08:01:00,
2013-12-12 01:06:00,57.0,31.6,29.82,SSW,207,3.0,4.0,38,0.00,,,0.00,WeatherCatV1.15B25,2013-12-12 08:06:00,
2013-12-12 01:11:00,57.3,31.9,29.82,SSW,199,3.0,7.0,38,0.00,,,0.00,WeatherCatV1.15B25,2013-12-12 08:11:00,
2013-12-12 01:16:00,57.5,32.1,29.82,SSW,194,3.0,5.0,38,0.00,,,0.00,WeatherCatV1.15B25,2013-12-12 08:16:00,
2013-12-12 01:21:00,57.6,32.2,29.82,SSW,194,2.0,3.0,38,0.00,,,0.00,WeatherCatV1.15B25,2013-12-12 08:21:00,
2013-12-12 01:26:00,57.5,32.1,29.82,SSW,192,3.0,6.0,38,0.00,,,0.00,WeatherCatV1.15B25,2013-12-12 08:26:00,
2013-12-12 01:31:00,57.6,32.2,29.82,SSW,193,1.0,3.0,38,0.00,,,0.00,WeatherCatV1.15B25,2013-12-12 08:31:00,
2013-12-12 01:36:00,57.4,31.3,29.82,SSW,193,2.0,6.0,37,0.00,,,0.00,WeatherCatV1.15B25,2013-12-12 08:36:00,
2013-12-12 01:41:00,57.6,31.5,29.83,SSW,192,4.0,7.0,37,0.00,,,0.00,WeatherCatV1.15B25,2013-12-12 08:41:00,
2013-12-12 01:46:00,57.5,31.4,29.82,SSW,194,3.0,4.0,37,0.00,,,0.00,WeatherCatV1.15B25,2013-12-12 08:46:00,
2013-12-12 01:51:00,57.5,31.4,29.82,SSW,194,2.0,5.0,37,0.00,,,0.00,WeatherCatV1.15B25,2013-12-12 08:51:00,
2013-12-12 01:56:00,57.6,31.5,29.82,SSW,192,3.0,4.0,37,0.00,,,0.00,WeatherCatV1.15B25,2013-12-12 08:56:00,
2013-12-12 02:01:00,57.5,31.4,29.82,SSW,192,3.0,4.0,37,0.00,,,0.00,WeatherCatV1.15B25,2013-12-12 09:01:00,
2013-12-12 02:06:00,57.4,31.3,29.83,South,190,4.0,5.0,37,0.00,,,0.00,WeatherCatV1.15B25,2013-12-12 09:06:00,
2013-12-12 02:11:00,57.2,31.2,29.83,South,189,2.0,3.0,37,0.00,,,0.00,WeatherCatV1.15B25,2013-12-12 09:11:00,
2013-12-12 02:16:00,57.1,31.1,29.83,South,183,3.0,5.0,37,0.00,,,0.00,WeatherCatV1.15B25,2013-12-12 09:16:00,
2013-12-12 02:21:00,57.1,31.1,29.83,South,183,1.0,3.0,37,0.00,,,0.00,WeatherCatV1.15B25,2013-12-12 09:21:00,
2013-12-12 02:26:00,56.9,30.2,29.83,South,183,3.0,6.0,36,0.00,,,0.00,WeatherCatV1.15B25,2013-12-12 09:26:00,
2013-12-12 02:31:00,56.9,30.9,29.83,South,182,4.0,5.0,37,0.00,,,0.00,WeatherCatV1.15B25,2013-12-12 09:31:00,
2013-12-12 02:36:00,56.8,30.8,29.82,South,182,2.0,4.0,37,0.00,,,0.00,WeatherCatV1.15B25,2013-12-12 09:36:00,
2013-12-12 02:41:00,56.7,30.7,29.82,South,183,8.0,8.0,37,0.00,,,0.00,WeatherCatV1.15B25,2013-12-12 09:41:00,
2013-12-12 02:46:00,56.9,30.9,29.82,South,183,5.0,5.0,37,0.00,,,0.00,WeatherCatV1.15B25,2013-12-12 09:46:00,
2013-12-12 02:51:00,56.9,30.9,29.82,South,183,5.0,5.0,37,0.00,,,0.00,WeatherCatV1.15B25,2013-12-12 09:51:00,
2013-12-12 02:56:00,56.7,30.7,29.82,South,183,1.0,4.0,37,0.00,,,0.00,WeatherCatV1.15B25,2013-12-12 09:56:00,
2013-12-12 03:01:00,56.6,31.3,29.82,South,183,2.0,5.0,38,0.00,,,0.00,WeatherCatV1.15B25,2013-12-12 10:01:00,
2013-12-12 03:06:00,56.4,31.1,29.82,South,182,0.0,5.0,38,0.00,,,0.00,WeatherCatV1.15B25,2013-12-12 10:06:00,
2013-12-12 03:11:00,56.3,31.0,29.82,South,182,1.0,3.0,38,0.00,,,0.00,WeatherCatV1.15B25,2013-12-12 10:11:00,
2013-12-12 03:16:00,56.3,31.0,29.82,South,182,2.0,4.0,38,0.00,,,0.00,WeatherCatV1.15B25,2013-12-12 10:16:00,
2013-12-12 03:21:00,56.4,31.1,29.82,South,182,5.0,9.0,38,0.00,,,0.00,WeatherCatV1.15B25,2013-12-12 10:21:00,
2013-12-12 03:26:00,56.5,31.2,29.81,South,182,2.0,5.0,38,0.00,,,0.00,WeatherCatV1.15B25,2013-12-12 10:26:00,
2013-12-12 03:31:00,56.5,31.2,29.81,South,182,5.0,5.0,38,0.00,,,0.00,WeatherCatV1.15B25,2013-12-12 10:31:00,
2013-12-12 03:36:00,56.5,31.2,29.81,South,182,2.0,6.0,38,0.00,,,0.00,WeatherCatV1.15B25,2013-12-12 10:36:00,
2013-12-12 03:41:00,56.3,31.0,29.81,South,182,1.0,5.0,38,0.00,,,0.00,WeatherCatV1.15B25,2013-12-12 10:41:00,
2013-12-12 03:46:00,56.1,30.8,29.81,South,182,2.0,5.0,38,0.00,,,0.00,WeatherCatV1.15B25,2013-12-12 10:46:00,
2013-12-12 03:51:00,56.0,30.8,29.81,South,182,3.0,7.0,38,0.00,,,0.00,WeatherCatV1.15B25,2013-12-12 10:51:00,
2013-12-12 03:56:00,56.0,30.1,29.80,South,182,2.0,5.0,37,0.00,,,0.00,WeatherCatV1.15B25,2013-12-12 10:56:00,
2013-12-12 04:01:00,56.0,30.8,29.80,South,182,4.0,4.0,38,0.00,,,0.00,WeatherCatV1.15B25,2013-12-12 11:01:00,
2013-12-12 04:06:00,55.8,30.6,29.80,South,182,4.0,5.0,38,0.00,,,0.00,WeatherCatV1.15B25,2013-12-12 11:06:00,
2013-12-12 04:11:00,55.6,29.7,29.80,South,182,5.0,7.0,37,0.00,,,0.00,WeatherCatV1.15B25,2013-12-12 11:11:00,
2013-12-12 04:16:00,55.5,30.3,29.80,South,181,2.0,7.0,38,0.00,,,0.00,WeatherCatV1.15B25,2013-12-12 11:16:00,
2013-12-12 04:21:00,55.4,30.2,29.80,South,181,2.0,5.0,38,0.00,,,0.00,WeatherCatV1.15B25,2013-12-12 11:21:00,
2013-12-12 04:26:00,55.1,30.0,29.80,South,180,3.0,7.0,38,0.00,,,0.00,WeatherCatV1.15B25,2013-12-12 11:26:00,
2013-12-12 04:31:00,54.9,29.8,29.80,South,180,3.0,7.0,38,0.00,,,0.00,WeatherCatV1.15B25,2013-12-12 11:31:00,
2013-12-12 04:36:00,55.0,29.9,29.79,SSE,159,2.0,5.0,38,0.00,,,0.00,WeatherCatV1.15B25,2013-12-12 11:36:00,
2013-12-12 04:41:00,55.0,29.9,29.79,South,181,6.0,6.0,38,0.00,,,0.00,WeatherCatV1.15B25,2013-12-12 11:41:00,
2013-12-12 04:46:00,55.1,30.0,29.79,SSE,160,5.0,12.0,38,0.00,,,0.00,WeatherCatV1.15B25,2013-12-12 11:46:00,
2013-12-12 04:51:00,55.2,29.4,29.79,South,190,6.0,9.0,37,0.00,,,0.00,WeatherCatV1.15B25,2013-12-12 11:51:00,
2013-12-12 04:56:00,55.3,29.5,29.79,South,173,6.0,6.0,37,0.00,,,0.00,WeatherCatV1.15B25,2013-12-12 11:56:00,
2013-12-12 05:01:00,55.3,29.5,29.79,South,180,6.0,7.0,37,0.00,,,0.00,WeatherCatV1.15B25,2013-12-12 12:01:00,
2013-12-12 05:06:00,55.3,29.5,29.79,South,172,4.0,5.0,37,0.00,,,0.00,WeatherCatV1.15B25,2013-12-12 12:06:00,
2013-12-12 05:11:00,55.2,29.4,29.79,South,180,4.0,9.0,37,0.00,,,0.00,WeatherCatV1.15B25,2013-12-12 12:11:00,
2013-12-12 05:17:00,55.1,29.3,29.79,South,170,4.0,6.0,37,0.00,,,0.00,WeatherCatV1.15B25,2013-12-12 12:17:00,
2013-12-12 05:22:00,55.0,29.2,29.79,South,170,5.0,5.0,37,0.00,,,0.00,WeatherCatV1.15B25,2013-12-12 12:22:00,
2013-12-12 05:27:00,54.9,29.8,29.79,SSE,157,2.0,5.0,38,0.00,,,0.00,WeatherCatV1.15B25,2013-12-12 12:27:00,
2013-12-12 05:32:00,54.7,29.6,29.79,SSE,155,6.0,10.0,38,0.00,,,0.00,WeatherCatV1.15B25,2013-12-12 12:32:00,
2013-12-12 05:37:00,54.5,29.4,29.79,SSE,165,2.0,9.0,38,0.00,,,0.00,WeatherCatV1.15B25,2013-12-12 12:37:00,
2013-12-12 05:42:00,54.4,29.3,29.80,SSE,163,3.0,6.0,38,0.00,,,0.00,WeatherCatV1.15B25,2013-12-12 12:42:00,
2013-12-12 05:47:00,54.6,29.5,29.79,SSE,158,7.0,7.0,38,0.00,,,0.00,WeatherCatV1.15B25,2013-12-12 12:47:00,
2013-12-12 05:52:00,54.6,29.5,29.79,South,183,6.0,11.0,38,0.00,,,0.00,WeatherCatV1.15B25,2013-12-12 12:52:00,
2013-12-12 05:57:00,54.7,29.6,29.79,SSE,165,4.0,5.0,38,0.00,,,0.00,WeatherCatV1.15B25,2013-12-12 12:57:00,
2013-12-12 06:02:00,54.7,30.2,29.79,SSE,165,3.0,9.0,39,0.00,,,0.00,WeatherCatV1.15B25,2013-12-12 13:02:00,
2013-12-12 06:07:00,54.7,29.6,29.79,SSE,158,5.0,6.0,38,0.00,,,0.00,WeatherCatV1.15B25,2013-12-12 13:07:00,
2013-12-12 06:12:00,55.0,29.9,29.79,SSE,154,3.0,10.0,38,0.00,,,0.00,WeatherCatV1.15B25,2013-12-12 13:12:00,
2013-12-12 06:17:00,55.1,30.0,29.79,SSE,159,3.0,5.0,38,0.00,,,0.00,WeatherCatV1.15B25,2013-12-12 13:17:00,
2013-12-12 06:22:00,55.4,30.2,29.79,SSE,165,7.0,11.0,38,0.00,,,0.00,WeatherCatV1.15B25,2013-12-12 13:22:00,
2013-12-12 06:27:00,55.4,30.2,29.79,South,177,5.0,10.0,38,0.00,,,0.00,WeatherCatV1.15B25,2013-12-12 13:27:00,
2013-12-12 06:32:00,55.4,29.6,29.79,SSE,151,5.0,10.0,37,0.00,,,0.00,WeatherCatV1.15B25,2013-12-12 13:32:00,
2013-12-12 06:37:00,55.5,29.7,29.79,South,188,7.0,11.0,37,0.00,,,0.00,WeatherCatV1.15B25,2013-12-12 13:37:00,
2013-12-12 06:42:00,55.5,30.3,29.79,SSE,159,2.0,6.0,38,0.00,,,0.00,WeatherCatV1.15B25,2013-12-12 13:42:00,
2013-12-12 06:47:00,55.4,30.2,29.79,South,182,2.0,13.0,38,0.00,,,0.00,WeatherCatV1.15B25,2013-12-12 13:47:00,
2013-12-12 06:52:00,55.4,30.2,29.79,SSE,158,6.0,7.0,38,0.00,,,0.00,WeatherCatV1.15B25,2013-12-12 13:52:00,
2013-12-12 06:57:00,55.1,30.0,29.79,SSE,155,5.0,7.0,38,0.00,,,0.00,WeatherCatV1.15B25,2013-12-12 13:57:00,
2013-12-12 07:02:00,55.0,29.9,29.79,SSE,155,7.0,13.0,38,0.00,,,0.00,WeatherCatV1.15B25,2013-12-12 14:02:00,
2013-12-12 07:07:00,55.3,30.1,29.80,SE,132,9.0,11.0,38,0.00,,,0.00,WeatherCatV1.15B25,2013-12-12 14:07:00,
2013-12-12 07:12:00,55.8,29.9,29.80,SE,133,12.0,12.0,37,0.00,,,0.00,WeatherCatV1.15B25,2013-12-12 14:12:00,
2013-12-12 07:17:00,55.7,29.8,29.80,SE,138,15.0,15.0,37,0.00,,,0.00,WeatherCatV1.15B25,2013-12-12 14:17:00,
2013-12-12 07:22:00,55.7,29.8,29.80,SE,145,9.0,11.0,37,0.00,,,0.00,WeatherCatV1.15B25,2013-12-12 14:22:00,
2013-12-12 07:27:00,55.8,29.9,29.80,SE,132,13.0,14.0,37,0.00,,,0.00,WeatherCatV1.15B25,2013-12-12 14:27:00,
2013-12-12 07:32:00,56.0,30.1,29.80,SE,142,10.0,12.0,37,0.00,,,0.00,WeatherCatV1.15B25,2013-12-12 14:32:00,
2013-12-12 07:39:00,56.2,30.3,29.80,SSE,153,4.0,17.0,37,0.00,,,0.00,WeatherCatV1.15B25,2013-12-12 14:39:00,
2013-12-12 07:44:00,56.4,30.5,29.80,SSE,157,8.0,12.0,37,0.00,,,0.00,WeatherCatV1.15B25,2013-12-12 14:44:00,
2013-12-12 07:49:00,56.5,30.5,29.79,SE,128,12.0,12.0,37,0.00,,,0.00,WeatherCatV1.15B25,2013-12-12 14:49:00,
2013-12-12 07:56:00,57.0,30.3,29.79,SSE,150,3.0,10.0,36,0.00,,,0.00,WeatherCatV1.15B25,2013-12-12 14:56:00,
2013-12-12 08:01:00,57.3,30.6,29.79,SSE,167,3.0,11.0,36,0.00,,,0.00,WeatherCatV1.15B25,2013-12-12 15:01:00,
2013-12-12 08:06:00,57.3,30.6,29.80,SSW,211,7.0,12.0,36,0.00,,,0.00,WeatherCatV1.15B25,2013-12-12 15:06:00,
2013-12-12 08:11:00,57.0,30.3,29.80,South,188,7.0,14.0,36,0.00,,,0.00,WeatherCatV1.15B25,2013-12-12 15:11:00,
2013-12-12 08:16:00,56.9,30.2,29.81,South,173,14.0,14.0,36,0.00,,,0.00,WeatherCatV1.15B25,2013-12-12 15:16:00,
2013-12-12 08:21:00,56.8,30.1,29.81,SE,130,5.0,13.0,36,0.00,,,0.00,WeatherCatV1.15B25,2013-12-12 15:21:00,
2013-12-12 08:26:00,56.8,30.1,29.81,SSE,160,3.0,13.0,36,0.00,,,0.00,WeatherCatV1.15B25,2013-12-12 15:26:00,
2013-12-12 08:31:00,57.1,31.1,29.82,SSE,155,3.0,10.0,37,0.00,,,0.00,WeatherCatV1.15B25,2013-12-12 15:31:00,
2013-12-12 08:36:00,57.6,30.8,29.82,SSE,153,10.0,13.0,36,0.00,,,0.00,WeatherCatV1.15B25,2013-12-12 15:36:00,
2013-12-12 08:41:00,58.2,30.7,29.82,SE,145,6.0,17.0,35,0.00,,,0.00,WeatherCatV1.15B25,2013-12-12 15:41:00,
2013-12-12 08:46:00,58.6,31.0,29.82,South,188,9.0,20.0,35,0.00,,,0.00,WeatherCatV1.15B25,2013-12-12 15:46:00,
2013-12-12 08:51:00,58.5,31.6,29.82,SSE,168,4.0,11.0,36,0.00,,,0.00,WeatherCatV1.15B25,2013-12-12 15:51:00,
2013-12-12 08:56:00,58.3,31.5,29.82,SSE,167,4.0,10.0,36,0.00,,,0.00,WeatherCatV1.15B25,2013-12-12 15:56:00,
2013-12-12 09:01:00,58.6,31.0,29.82,SE,129,11.0,14.0,35,0.00,,,0.00,WeatherCatV1.15B25,2013-12-12 16:01:00,
2013-12-12 09:06:00,58.8,31.2,29.82,SSE,149,10.0,14.0,35,0.00,,,0.00,WeatherCatV1.15B25,2013-12-12 16:06:00,
2013-12-12 09:11:00,59.0,31.4,29.82,SE,133,7.0,11.0,35,0.00,,,0.00,WeatherCatV1.15B25,2013-12-12 16:11:00,
2013-12-12 09:16:00,59.1,32.2,29.82,SE,140,11.0,14.0,36,0.00,,,0.00,WeatherCatV1.15B25,2013-12-12 16:16:00,
2013-12-12 09:21:00,59.5,31.8,29.82,SE,137,16.0,19.0,35,0.00,,,0.00,WeatherCatV1.15B25,2013-12-12 16:21:00,
2013-12-12 09:26:00,59.6,31.9,29.82,ESE,120,7.0,16.0,35,0.00,,,0.00,WeatherCatV1.15B25,2013-12-12 16:26:00,
2013-12-12 09:31:00,59.4,31.7,29.82,ESE,108,9.0,19.0,35,0.00,,,0.00,WeatherCatV1.15B25,2013-12-12 16:31:00,
2013-12-12 09:36:00,59.0,32.1,29.82,ESE,117,9.0,15.0,36,0.00,,,0.00,WeatherCatV1.15B25,2013-12-12 16:36:00,
2013-12-12 09:41:00,59.5,32.5,29.82,SE,142,5.0,10.0,36,0.00,,,0.00,WeatherCatV1.15B25,2013-12-12 16:41:00,
2013-12-12 09:46:00,59.7,32.7,29.82,ESE,122,11.0,17.0,36,0.00,,,0.00,WeatherCatV1.15B25,2013-12-12 16:46:00,
2013-12-12 09:51:00,59.5,32.5,29.82,SE,134,10.0,14.0,36,0.00,,,0.00,WeatherCatV1.15B25,2013-12-12 16:51:00,
2013-12-12 09:56:00,59.8,32.8,29.82,SE,133,6.0,14.0,36,0.00,,,0.00,WeatherCatV1.15B25,2013-12-12 16:56:00,
2013-12-12 10:01:00,59.8,32.8,29.82,ESE,118,6.0,15.0,36,0.00,,,0.00,WeatherCatV1.15B25,2013-12-12 17:01:00,
2013-12-12 10:06:00,59.8,32.8,29.82,SE,146,7.0,13.0,36,0.00,,,0.00,WeatherCatV1.15B25,2013-12-12 17:06:00,
2013-12-12 10:11:00,60.8,34.4,29.82,SE,134,5.0,8.0,37,0.00,,,0.00,WeatherCatV1.15B25,2013-12-12 17:11:00,
2013-12-12 10:16:00,61.6,34.4,29.82,SSE,152,9.0,15.0,36,0.00,,,0.00,WeatherCatV1.15B25,2013-12-12 17:16:00,
2013-12-12 10:21:00,61.6,33.7,29.82,SE,138,10.0,12.0,35,0.00,,,0.00,WeatherCatV1.15B25,2013-12-12 17:21:00,
2013-12-12 10:26:00,61.9,34.7,29.82,ESE,123,5.0,14.0,36,0.00,,,0.00,WeatherCatV1.15B25,2013-12-12 17:26:00,
2013-12-12 10:31:00,62.1,34.8,29.82,SE,125,10.0,12.0,36,0.00,,,0.00,WeatherCatV1.15B25,2013-12-12 17:31:00,
2013-12-12 10:36:00,62.6,35.3,29.82,SE,131,9.0,12.0,36,0.00,,,0.00,WeatherCatV1.15B25,2013-12-12 17:36:00,
2013-12-12 10:41:00,62.9,35.5,29.81,SE,145,9.0,12.0,36,0.00,,,0.00,WeatherCatV1.15B25,2013-12-12 17:41:00,
2013-12-12 10:46:00,63.3,35.9,29.81,SE,124,8.0,9.0,36,0.00,,,0.00,WeatherCatV1.15B25,2013-12-12 17:46:00,
2013-12-12 10:51:00,64.0,36.5,29.81,East,101,4.0,6.0,36,0.00,,,0.00,WeatherCatV1.15B25,2013-12-12 17:51:00,
2013-12-12 10:56:00,64.4,36.9,29.80,SE,145,5.0,13.0,36,0.00,,,0.00,WeatherCatV1.15B25,2013-12-12 17:56:00,
2013-12-12 11:01:00,64.4,36.9,29.80,SE,127,5.0,8.0,36,0.00,,,0.00,WeatherCatV1.15B25,2013-12-12 18:01:00,
2013-12-12 11:06:00,64.3,36.8,29.80,SE,138,5.0,9.0,36,0.00,,,0.00,WeatherCatV1.15B25,2013-12-12 18:06:00,
2013-12-12 11:11:00,64.7,37.1,29.79,SE,138,7.0,12.0,36,0.00,,,0.00,WeatherCatV1.15B25,2013-12-12 18:11:00,
2013-12-12 11:16:00,65.1,38.2,29.79,SE,130,6.0,7.0,37,0.00,,,0.00,WeatherCatV1.15B25,2013-12-12 18:16:00,
2013-12-12 11:21:00,65.5,37.8,29.79,ESE,106,6.0,7.0,36,0.00,,,0.00,WeatherCatV1.15B25,2013-12-12 18:21:00,
2013-12-12 11:26:00,65.6,37.9,29.78,SE,130,5.0,9.0,36,0.00,,,0.00,WeatherCatV1.15B25,2013-12-12 18:26:00,
2013-12-12 11:31:00,65.5,37.8,29.78,SE,143,7.0,9.0,36,0.00,,,0.00,WeatherCatV1.15B25,2013-12-12 18:31:00,
2013-12-12 11:36:00,65.6,37.9,29.78,ESE,121,0.0,6.0,36,0.00,,,0.00,WeatherCatV1.15B25,2013-12-12 18:36:00,
2013-12-12 11:41:00,66.3,38.5,29.78,SE,124,6.0,7.0,36,0.00,,,0.00,WeatherCatV1.15B25,2013-12-12 18:41:00,
2013-12-12 11:46:00,66.5,39.4,29.78,SSE,163,3.0,6.0,37,0.00,,,0.00,WeatherCatV1.15B25,2013-12-12 18:46:00,
2013-12-12 11:51:00,66.8,38.3,29.77,ENE,76,1.0,7.0,35,0.00,,,0.00,WeatherCatV1.15B25,2013-12-12 18:51:00,
2013-12-12 11:56:00,67.1,38.5,29.77,ESE,103,5.0,11.0,35,0.00,,,0.00,WeatherCatV1.15B25,2013-12-12 18:56:00,
2013-12-12 12:01:00,67.1,38.5,29.77,SE,133,3.0,9.0,35,0.00,,,0.00,WeatherCatV1.15B25,2013-12-12 19:01:00,
2013-12-12 12:06:00,67.5,39.6,29.76,ESE,103,5.0,10.0,36,0.00,,,0.00,WeatherCatV1.15B25,2013-12-12 19:06:00,
2013-12-12 12:11:00,67.8,40.6,29.77,South,177,8.0,8.0,37,0.00,,,0.00,WeatherCatV1.15B25,2013-12-12 19:11:00,
2013-12-12 12:16:00,68.3,41.0,29.76,SE,136,6.0,7.0,37,0.00,,,0.00,WeatherCatV1.15B25,2013-12-12 19:16:00,
2013-12-12 12:21:00,68.2,40.9,29.76,SE,130,4.0,10.0,37,0.00,,,0.00,WeatherCatV1.15B25,2013-12-12 19:21:00,
2013-12-12 12:26:00,68.1,40.8,29.75,ESE,110,3.0,5.0,37,0.00,,,0.00,WeatherCatV1.15B25,2013-12-12 19:26:00,
2013-12-12 12:31:00,68.6,40.6,29.75,ESE,103,4.0,6.0,36,0.00,,,0.00,WeatherCatV1.15B25,2013-12-12 19:31:00,
2013-12-12 12:36:00,68.8,41.5,29.75,East,96,2.0,4.0,37,0.00,,,0.00,WeatherCatV1.15B25,2013-12-12 19:36:00,
2013-12-12 12:41:00,69.1,41.0,29.74,ESE,102,2.0,6.0,36,0.00,,,0.00,WeatherCatV1.15B25,2013-12-12 19:41:00,
2013-12-12 12:46:00,69.4,42.0,29.74,SE,136,2.0,4.0,37,0.00,,,0.00,WeatherCatV1.15B25,2013-12-12 19:46:00,
2013-12-12 12:51:00,69.4,40.6,29.74,SE,136,1.0,3.0,35,0.00,,,0.00,WeatherCatV1.15B25,2013-12-12 19:51:00,
2013-12-12 12:56:00,69.9,42.4,29.73,SSE,149,3.0,6.0,37,0.00,,,0.00,WeatherCatV1.15B25,2013-12-12 19:56:00,
2013-12-12 13:01:00,70.0,41.8,29.73,SE,142,1.0,1.0,36,0.00,,,0.00,WeatherCatV1.15B25,2013-12-12 20:01:00,
2013-12-12 13:06:00,70.1,41.9,29.73,SE,140,3.0,7.0,36,0.00,,,0.00,WeatherCatV1.15B25,2013-12-12 20:06:00,
2013-12-12 13:11:00,69.9,42.4,29.72,SE,138,0.0,1.0,37,0.00,,,0.00,WeatherCatV1.15B25,2013-12-12 20:11:00,
2013-12-12 13:16:00,70.9,42.6,29.72,SE,146,0.0,3.0,36,0.00,,,0.00,WeatherCatV1.15B25,2013-12-12 20:16:00,
2013-12-12 13:21:00,71.9,42.8,29.72,SE,146,1.0,3.0,35,0.00,,,0.00,WeatherCatV1.15B25,2013-12-12 20:21:00,
2013-12-12 13:26:00,72.4,42.4,29.71,WSW,248,2.0,5.0,34,0.00,,,0.00,WeatherCatV1.15B25,2013-12-12 20:26:00,
2013-12-12 13:31:00,72.4,42.4,29.71,WSW,248,0.0,1.0,34,0.00,,,0.00,WeatherCatV1.15B25,2013-12-12 20:31:00,
2013-12-12 13:36:00,72.2,42.3,29.71,SSW,201,2.0,4.0,34,0.00,,,0.00,WeatherCatV1.15B25,2013-12-12 20:36:00,
2013-12-12 13:41:00,72.3,42.3,29.71,SSW,199,0.0,1.0,34,0.00,,,0.00,WeatherCatV1.15B25,2013-12-12 20:41:00,
2013-12-12 13:46:00,72.6,42.6,29.70,ESE,116,2.0,4.0,34,0.00,,,0.00,WeatherCatV1.15B25,2013-12-12 20:46:00,
2013-12-12 13:51:00,72.5,42.5,29.70,ESE,116,0.0,0.0,34,0.00,,,0.00,WeatherCatV1.15B25,2013-12-12 20:51:00,
2013-12-12 13:56:00,72.9,44.4,29.70,South,185,1.0,4.0,36,0.00,,,0.00,WeatherCatV1.15B25,2013-12-12 20:56:00,
2013-12-12 14:01:00,72.5,43.3,29.70,ENE,61,1.0,4.0,35,0.00,,,0.00,WeatherCatV1.15B25,2013-12-12 21:01:00,
2013-12-12 14:06:00,72.8,43.5,29.70,ENE,63,0.0,4.0,35,0.00,,,0.00,WeatherCatV1.15B25,2013-12-12 21:06:00,
2013-12-12 14:11:00,73.4,44.1,29.70,SW,221,1.0,6.0,35,0.00,,,0.00,WeatherCatV1.15B25,2013-12-12 21:11:00,
2013-12-12 14:16:00,73.2,43.1,29.69,West,277,3.0,6.0,34,0.00,,,0.00,WeatherCatV1.15B25,2013-12-12 21:16:00,
2013-12-12 14:21:00,73.0,43.7,29.69,West,277,3.0,3.0,35,0.00,,,0.00,WeatherCatV1.15B25,2013-12-12 21:21:00,
2013-12-12 14:25:00,73.2,43.1,29.69,West,277,0.0,3.0,34,0.00,,,0.00,WeatherCatV1.15B25,2013-12-12 21:25:00,
2013-12-12 14:30:00,73.4,43.3,29.69,West,277,1.0,3.0,34,0.00,,,0.00,WeatherCatV1.15B25,2013-12-12 21:30:00,
2013-12-12 14:35:00,73.6,45.0,29.69,West,263,3.0,5.0,36,0.00,,,0.00,WeatherCatV1.15B25,2013-12-12 21:35:00,
2013-12-12 14:40:00,73.1,44.5,29.69,SW,234,6.0,10.0,36,0.00,,,0.00,WeatherCatV1.15B25,2013-12-12 21:40:00,
2013-12-12 14:45:00,72.6,44.1,29.69,WSW,245,4.0,6.0,36,0.00,,,0.00,WeatherCatV1.15B25,2013-12-12 21:45:00,
2013-12-12 14:50:00,72.4,44.6,29.69,West,270,3.0,4.0,37,0.00,,,0.00,WeatherCatV1.15B25,2013-12-12 21:50:00,
2013-12-12 14:55:00,72.5,44.7,29.69,West,261,2.0,2.0,37,0.00,,,0.00,WeatherCatV1.15B25,2013-12-12 21:55:00,
2013-12-12 15:00:00,73.0,44.5,29.68,West,261,1.0,4.0,36,0.00,,,0.00,WeatherCatV1.15B25,2013-12-12 22:00:00,
2013-12-12 15:05:00,72.8,44.3,29.68,NW,317,2.0,6.0,36,0.00,,,0.00,WeatherCatV1.15B25,2013-12-12 22:05:00,
2013-12-12 15:10:00,72.3,44.6,29.68,NW,318,0.0,6.0,37,0.00,,,0.00,WeatherCatV1.15B25,2013-12-12 22:10:00,
2013-12-12 15:15:00,72.4,44.6,29.68,WNW,284,1.0,1.0,37,0.00,,,0.00,WeatherCatV1.15B25,2013-12-12 22:15:00,
2013-12-12 15:20:00,72.5,44.0,29.68,WNW,282,0.0,1.0,36,0.00,,,0.00,WeatherCatV1.15B25,2013-12-12 22:20:00,
2013-12-12 15:25:00,72.5,44.0,29.68,SW,228,5.0,12.0,36,0.00,,,0.00,WeatherCatV1.15B25,2013-12-12 22:25:00,
2013-12-12 15:30:00,71.9,44.2,29.68,SW,225,7.0,12.0,37,0.00,,,0.00,WeatherCatV1.15B25,2013-12-12 22:30:00,
2013-12-12 15:35:00,71.7,44.0,29.69,WSW,239,4.0,6.0,37,0.00,,,0.00,WeatherCatV1.15B25,2013-12-12 22:35:00,
2013-12-12 15:40:00,71.6,43.9,29.69,WSW,256,1.0,6.0,37,0.00,,,0.00,WeatherCatV1.15B25,2013-12-12 22:40:00,
2013-12-12 15:45:00,71.0,42.7,29.69,NNW,334,4.0,10.0,36,0.00,,,0.00,WeatherCatV1.15B25,2013-12-12 22:45:00,
2013-12-12 15:50:00,69.6,42.2,29.69,NW,312,5.0,12.0,37,0.00,,,0.00,WeatherCatV1.15B25,2013-12-12 22:50:00,
2013-12-12 15:55:00,68.6,42.0,29.69,WNW,290,3.0,11.0,38,0.00,,,0.00,WeatherCatV1.15B25,2013-12-12 22:55:00,
2013-12-12 16:00:00,68.2,41.6,29.69,WNW,284,9.0,13.0,38,0.00,,,0.00,WeatherCatV1.15B25,2013-12-12 23:00:00,
2013-12-12 16:05:00,67.8,41.3,29.69,WNW,293,9.0,11.0,38,0.00,,,0.00,WeatherCatV1.15B25,2013-12-12 23:05:00,
2013-12-12 16:10:00,67.6,41.1,29.69,NW,309,5.0,15.0,38,0.00,,,0.00,WeatherCatV1.15B25,2013-12-12 23:10:00,
2013-12-12 16:15:00,67.0,41.2,29.69,WNW,287,11.0,14.0,39,0.00,,,0.00,WeatherCatV1.15B25,2013-12-12 23:15:00,
2013-12-12 16:20:00,66.5,41.4,29.69,NW,307,4.0,7.0,40,0.00,,,0.00,WeatherCatV1.15B25,2013-12-12 23:20:00,
2013-12-12 16:25:00,66.1,41.1,29.69,WNW,291,6.0,17.0,40,0.00,,,0.00,WeatherCatV1.15B25,2013-12-12 23:25:00,
2013-12-12 16:30:00,65.8,40.8,29.70,NW,320,9.0,18.0,40,0.00,,,0.00,WeatherCatV1.15B25,2013-12-12 23:30:00,
2013-12-12 16:35:00,65.4,40.4,29.70,NW,323,3.0,6.0,40,0.00,,,0.00,WeatherCatV1.15B25,2013-12-12 23:35:00,
2013-12-12 16:40:00,65.2,40.3,29.70,NW,318,4.0,7.0,40,0.00,,,0.00,WeatherCatV1.15B25,2013-12-12 23:40:00,
2013-12-12 16:45:00,64.8,39.9,29.70,WNW,284,3.0,9.0,40,0.00,,,0.00,WeatherCatV1.15B25,2013-12-12 23:45:00,
2013-12-12 16:50:00,64.3,38.8,29.70,WNW,288,10.0,13.0,39,0.00,,,0.00,WeatherCatV1.15B25,2013-12-12 23:50:00,
2013-12-12 16:55:00,63.7,38.3,29.70,WNW,298,6.0,14.0,39,0.00,,,0.00,WeatherCatV1.15B25,2013-12-12 23:55:00,
2013-12-12 17:00:00,63.1,37.7,29.70,WNW,293,7.0,14.0,39,0.00,,,0.00,WeatherCatV1.15B25,2013-12-13 00:00:00,
2013-12-12 17:05:00,62.7,37.4,29.71,WNW,290,4.0,11.0,39,0.00,,,0.00,WeatherCatV1.15B25,2013-12-13 00:05:00,
2013-12-12 17:10:00,62.4,37.8,29.71,WNW,290,6.0,12.0,40,0.00,,,0.00,WeatherCatV1.15B25,2013-12-13 00:10:00,
2013-12-12 17:15:00,62.1,37.5,29.71,WNW,286,9.0,10.0,40,0.00,,,0.00,WeatherCatV1.15B25,2013-12-13 00:15:00,
2013-12-12 17:20:00,61.9,37.3,29.71,WNW,294,7.0,12.0,40,0.00,,,0.00,WeatherCatV1.15B25,2013-12-13 00:20:00,
2013-12-12 17:25:00,61.7,36.5,29.71,WNW,292,11.0,14.0,39,0.00,,,0.00,WeatherCatV1.15B25,2013-12-13 00:25:00,
2013-12-12 17:30:00,61.5,37.0,29.71,NNW,328,1.0,7.0,40,0.00,,,0.00,WeatherCatV1.15B25,2013-12-13 00:30:00,
2013-12-12 17:35:00,61.2,36.7,29.71,NW,304,3.0,6.0,40,0.00,,,0.00,WeatherCatV1.15B25,2013-12-13 00:35:00,
2013-12-12 17:40:00,61.1,36.6,29.71,WNW,298,4.0,6.0,40,0.00,,,0.00,WeatherCatV1.15B25,2013-12-13 00:40:00,
2013-12-12 17:45:00,60.9,36.4,29.72,WNW,300,4.0,6.0,40,0.00,,,0.00,WeatherCatV1.15B25,2013-12-13 00:45:00,
2013-12-12 17:50:00,60.8,36.3,29.72,WNW,297,5.0,6.0,40,0.00,,,0.00,WeatherCatV1.15B25,2013-12-13 00:50:00,
2013-12-12 17:55:00,60.7,36.2,29.72,WNW,297,5.0,5.0,40,0.00,,,0.00,WeatherCatV1.15B25,2013-12-13 00:55:00,
2013-12-12 18:00:00,60.5,36.1,29.72,WNW,298,2.0,4.0,40,0.00,,,0.00,WeatherCatV1.15B25,2013-12-13 01:00:00,
2013-12-12 18:05:00,60.2,35.8,29.72,WNW,298,2.0,5.0,40,0.00,,,0.00,WeatherCatV1.15B25,2013-12-13 01:05:00,
2013-12-12 18:10:00,59.8,36.1,29.72,WNW,298,5.0,5.0,41,0.00,,,0.00,WeatherCatV1.15B25,2013-12-13 01:10:00,
2013-12-12 18:15:00,59.6,35.9,29.72,WNW,298,4.0,5.0,41,0.00,,,0.00,WeatherCatV1.15B25,2013-12-13 01:15:00,
2013-12-12 18:20:00,59.4,35.7,29.73,WNW,298,3.0,4.0,41,0.00,,,0.00,WeatherCatV1.15B25,2013-12-13 01:20:00,
2013-12-12 18:25:00,59.0,35.3,29.73,WNW,298,2.0,3.0,41,0.00,,,0.00,WeatherCatV1.15B25,2013-12-13 01:25:00,
2013-12-12 18:30:00,58.9,35.2,29.73,WNW,298,4.0,6.0,41,0.00,,,0.00,WeatherCatV1.15B25,2013-12-13 01:30:00,
2013-12-12 18:35:00,58.9,34.6,29.73,WNW,286,3.0,8.0,40,0.00,,,0.00,WeatherCatV1.15B25,2013-12-13 01:35:00,
2013-12-12 18:40:00,58.8,34.5,29.73,WNW,287,3.0,7.0,40,0.00,,,0.00,WeatherCatV1.15B25,2013-12-13 01:40:00,
2013-12-12 18:45:00,58.7,34.4,29.74,WNW,288,2.0,6.0,40,0.00,,,0.00,WeatherCatV1.15B25,2013-12-13 01:45:00,
2013-12-12 18:50:00,58.6,33.7,29.74,WNW,286,1.0,5.0,39,0.00,,,0.00,WeatherCatV1.15B25,2013-12-13 01:50:00,
2013-12-12 18:55:00,58.6,33.7,29.74,West,278,4.0,5.0,39,0.00,,,0.00,WeatherCatV1.15B25,2013-12-13 01:55:00,
2013-12-12 19:00:00,58.5,33.6,29.75,West,278,1.0,6.0,39,0.00,,,0.00,WeatherCatV1.15B25,2013-12-13 02:00:00,
2013-12-12 19:05:00,58.2,33.4,29.75,West,278,3.0,5.0,39,0.00,,,0.00,WeatherCatV1.15B25,2013-12-13 02:05:00,
2013-12-12 19:10:00,58.0,33.2,29.75,West,278,5.0,5.0,39,0.00,,,0.00,WeatherCatV1.15B25,2013-12-13 02:10:00,
2013-12-12 19:15:00,57.9,33.1,29.75,West,280,2.0,6.0,39,0.00,,,0.00,WeatherCatV1.15B25,2013-12-13 02:15:00,
2013-12-12 19:20:00,58.0,32.5,29.75,West,280,5.0,6.0,38,0.00,,,0.00,WeatherCatV1.15B25,2013-12-13 02:20:00,
2013-12-12 19:25:00,58.1,32.6,29.75,WNW,282,3.0,4.0,38,0.00,,,0.00,WeatherCatV1.15B25,2013-12-13 02:25:00,
2013-12-12 19:30:00,57.9,32.5,29.75,WNW,282,4.0,6.0,38,0.00,,,0.00,WeatherCatV1.15B25,2013-12-13 02:30:00,
2013-12-12 19:35:00,57.9,32.5,29.75,WNW,282,3.0,5.0,38,0.00,,,0.00,WeatherCatV1.15B25,2013-12-13 02:35:00,
2013-12-12 19:40:00,57.8,32.4,29.75,WNW,283,5.0,5.0,38,0.00,,,0.00,WeatherCatV1.15B25,2013-12-13 02:40:00,
2013-12-12 19:45:00,57.8,32.4,29.75,WNW,284,4.0,7.0,38,0.00,,,0.00,WeatherCatV1.15B25,2013-12-13 02:45:00,
2013-12-12 19:50:00,57.7,32.9,29.75,WNW,285,3.0,7.0,39,0.00,,,0.00,WeatherCatV1.15B25,2013-12-13 02:50:00,
2013-12-12 19:55:00,57.4,32.6,29.75,WNW,285,4.0,5.0,39,0.00,,,0.00,WeatherCatV1.15B25,2013-12-13 02:55:00,
2013-12-12 20:00:00,57.1,33.0,29.75,WNW,285,3.0,5.0,40,0.00,,,0.00,WeatherCatV1.15B25,2013-12-13 03:00:00,
2013-12-12 20:05:00,56.7,32.7,29.75,WNW,285,3.0,3.0,40,0.00,,,0.00,WeatherCatV1.15B25,2013-12-13 03:05:00,
2013-12-12 20:10:00,56.4,32.4,29.75,WNW,285,2.0,4.0,40,0.00,,,0.00,WeatherCatV1.15B25,2013-12-13 03:10:00,
2013-12-12 20:15:00,56.1,31.5,29.75,WNW,285,0.0,3.0,39,0.00,,,0.00,WeatherCatV1.15B25,2013-12-13 03:15:00,
2013-12-12 20:20:00,55.9,31.9,29.76,WNW,285,0.0,1.0,40,0.00,,,0.00,WeatherCatV1.15B25,2013-12-13 03:20:00,
2013-12-12 20:25:00,55.6,32.9,29.75,WNW,285,0.0,0.0,42,0.00,,,0.00,WeatherCatV1.15B25,2013-12-13 03:25:00,
2013-12-12 20:30:00,55.1,33.6,29.76,WNW,285,0.0,0.0,44,0.00,,,0.00,WeatherCatV1.15B25,2013-12-13 03:30:00,
2013-12-12 20:36:00,54.4,33.5,29.76,WNW,285,0.0,0.0,45,0.00,,,0.00,WeatherCatV1.15B25,2013-12-13 03:36:00,
2013-12-12 20:41:00,53.6,33.3,29.76,WNW,285,0.0,0.0,46,0.00,,,0.00,WeatherCatV1.15B25,2013-12-13 03:41:00,
2013-12-12 20:46:00,52.9,33.2,29.76,WNW,285,0.0,0.0,47,0.00,,,0.00,WeatherCatV1.15B25,2013-12-13 03:46:00,
2013-12-12 20:51:00,52.4,32.8,29.76,WNW,285,0.0,0.0,47,0.00,,,0.00,WeatherCatV1.15B25,2013-12-13 03:51:00,
2013-12-12 20:56:00,52.0,32.9,29.76,WNW,285,0.0,0.0,48,0.00,,,0.00,WeatherCatV1.15B25,2013-12-13 03:56:00,
2013-12-12 21:01:00,51.5,33.0,29.76,WNW,285,3.0,3.0,49,0.00,,,0.00,WeatherCatV1.15B25,2013-12-13 04:01:00,
2013-12-12 21:06:00,51.4,32.4,29.76,WNW,285,1.0,2.0,48,0.00,,,0.00,WeatherCatV1.15B25,2013-12-13 04:06:00,
2013-12-12 21:11:00,51.7,31.6,29.76,WNW,285,1.0,4.0,46,0.00,,,0.00,WeatherCatV1.15B25,2013-12-13 04:11:00,
2013-12-12 21:16:00,52.2,31.0,29.76,WNW,285,1.0,1.0,44,0.00,,,0.00,WeatherCatV1.15B25,2013-12-13 04:16:00,
2013-12-12 21:21:00,52.6,30.2,29.76,WNW,285,0.0,1.0,42,0.00,,,0.00,WeatherCatV1.15B25,2013-12-13 04:21:00,
2013-12-12 21:26:00,52.6,31.3,29.76,WNW,285,0.0,0.0,44,0.00,,,0.00,WeatherCatV1.15B25,2013-12-13 04:26:00,
2013-12-12 21:31:00,52.2,32.0,29.76,WNW,285,0.0,1.0,46,0.00,,,0.00,WeatherCatV1.15B25,2013-12-13 04:31:00,
2013-12-12 21:36:00,51.6,31.0,29.76,WNW,285,3.0,3.0,45,0.00,,,0.00,WeatherCatV1.15B25,2013-12-13 04:36:00,
2013-12-12 21:41:00,51.7,31.1,29.76,WNW,285,0.0,0.0,45,0.00,,,0.00,WeatherCatV1.15B25,2013-12-13 04:41:00,
2013-12-12 21:46:00,51.8,30.6,29.76,WNW,285,1.0,2.0,44,0.00,,,0.00,WeatherCatV1.15B25,2013-12-13 04:46:00,
2013-12-12 21:51:00,52.1,30.3,29.76,WNW,285,3.0,3.0,43,0.00,,,0.00,WeatherCatV1.15B25,2013-12-13 04:51:00,
2013-12-12 21:56:00,52.3,30.5,29.76,WNW,285,2.0,3.0,43,0.00,,,0.00,WeatherCatV1.15B25,2013-12-13 04:56:00,
2013-12-12 22:01:00,52.3,30.5,29.76,WNW,285,3.0,4.0,43,0.00,,,0.00,WeatherCatV1.15B25,2013-12-13 05:01:00,
2013-12-12 22:06:00,52.3,29.9,29.76,WNW,285,5.0,5.0,42,0.00,,,0.00,WeatherCatV1.15B25,2013-12-13 05:06:00,
2013-12-12 22:11:00,52.4,30.0,29.76,WNW,285,2.0,4.0,42,0.00,,,0.00,WeatherCatV1.15B25,2013-12-13 05:11:00,
2013-12-12 22:16:00,52.4,30.0,29.76,WNW,285,3.0,3.0,42,0.00,,,0.00,WeatherCatV1.15B25,2013-12-13 05:16:00,
2013-12-12 22:21:00,52.5,30.1,29.76,WNW,285,4.0,4.0,42,0.00,,,0.00,WeatherCatV1.15B25,2013-12-13 05:21:00,
2013-12-12 22:26:00,52.6,30.2,29.76,WNW,285,2.0,4.0,42,0.00,,,0.00,WeatherCatV1.15B25,2013-12-13 05:26:00,
2013-12-12 22:31:00,52.6,30.2,29.76,WNW,285,3.0,5.0,42,0.00,,,0.00,WeatherCatV1.15B25,2013-12-13 05:31:00,
2013-12-12 22:36:00,52.7,30.3,29.76,WNW,285,3.0,5.0,42,0.00,,,0.00,WeatherCatV1.15B25,2013-12-13 05:36:00,
2013-12-12 22:41:00,52.6,29.6,29.76,WNW,284,3.0,6.0,41,0.00,,,0.00,WeatherCatV1.15B25,2013-12-13 05:41:00,
2013-12-12 22:46:00,52.8,29.8,29.76,WNW,284,3.0,4.0,41,0.00,,,0.00,WeatherCatV1.15B25,2013-12-13 05:46:00,
2013-12-12 22:51:00,52.6,29.6,29.76,WNW,284,2.0,4.0,41,0.00,,,0.00,WeatherCatV1.15B25,2013-12-13 05:51:00,
2013-12-12 22:56:00,52.4,29.4,29.77,WNW,284,1.0,2.0,41,0.00,,,0.00,WeatherCatV1.15B25,2013-12-13 05:56:00,
2013-12-12 23:01:00,52.3,29.9,29.77,WNW,284,1.0,4.0,42,0.00,,,0.00,WeatherCatV1.15B25,2013-12-13 06:01:00,
2013-12-12 23:06:00,52.1,29.7,29.77,WNW,284,1.0,2.0,42,0.00,,,0.00,WeatherCatV1.15B25,2013-12-13 06:06:00,
2013-12-12 23:11:00,51.8,29.4,29.76,WNW,284,2.0,2.0,42,0.00,,,0.00,WeatherCatV1.15B25,2013-12-13 06:11:00,
2013-12-12 23:16:00,51.7,29.9,29.76,WNW,284,1.0,3.0,43,0.00,,,0.00,WeatherCatV1.15B25,2013-12-13 06:16:00,
2013-12-12 23:21:00,51.7,29.4,29.76,WNW,284,0.0,3.0,42,0.00,,,0.00,WeatherCatV1.15B25,2013-12-13 06:21:00,
2013-12-12 23:26:00,51.6,29.3,29.76,WNW,284,0.0,0.0,42,0.00,,,0.00,WeatherCatV1.15B25,2013-12-13 06:26:00,
2013-12-12 23:31:00,51.3,29.6,29.76,WNW,284,0.0,0.0,43,0.00,,,0.00,WeatherCatV1.15B25,2013-12-13 06:31:00,
2013-12-12 23:37:00,50.6,30.6,29.76,WNW,284,0.0,2.0,46,0.00,,,0.00,WeatherCatV1.15B25,2013-12-13 06:37:00,
2013-12-12 23:42:00,49.6,30.7,29.76,WNW,284,0.0,3.0,48,0.00,,,0.00,WeatherCatV1.15B25,2013-12-13 06:42:00,
2013-12-12 23:47:00,49.1,29.7,29.76,WNW,284,0.0,0.0,47,0.00,,,0.00,WeatherCatV1.15B25,2013-12-13 06:47:00,
2013-12-12 23:52:00,48.8,30.0,29.76,WNW,284,0.0,0.0,48,0.00,,,0.00,WeatherCatV1.15B25,2013-12-13 06:52:00,
2013-12-12 23:57:00,48.4,30.6,29.76,WNW,284,0.0,0.0,50,0.00,,,0.00,WeatherCatV1.15B25,2013-12-13 06:57:00,